Regional Weather Roundup
Issued by NWS

Home | Current Version | Previous Version | Graphics & Text | Print | Product List | Glossary On
Versions: 1 2 3 4 5 6 7 8 9 10 11 12 13 14 15 16 17 18 19 20 21 22 23 24 25 26 27 28 29 30 31 32 33 34 35 36 37 38 39 40 41 42 43 44 45 46 47 48 49 50
000
ASUS43 KLSX 211907
RWRMO

WEATHER SUMMARY FOR MISSOURI
NATIONAL WEATHER SERVICE SPRINGFIELD MO
100 PM CST SUN JAN 21 2018

NOTE: "FAIR" INDICATES FEW OR NO CLOUDS BELOW 12,000 FEET WITH NO
       SIGNIFICANT WEATHER AND/OR OBSTRUCTIONS TO VISIBILITY.
       CURRENT SKY AND/OR WEATHER CONDITIONS ARE NOT AVAILABLE FOR
       CHILLICOTHE AND FARMINGTON.

MOZ001>031-035>038-043-044-053-054-212000-
...NORTHERN AND WESTERN MISSOURI...

CITY           SKY/WX    TMP DP  RH WIND       PRES   REMARKS
KANSAS CTY INT CLOUDY    57  50  77 S10       29.72F
KANSAS C DTWN  CLOUDY    59  50  72 CALM      29.71F
LEE`S SUMMIT   CLOUDY    59  53  80 S12       29.73F
ST JOSEPH      CLOUDY    58  50  75 S13       29.71F
CHILLICOTHE      N/A     54  50  86 SE8       29.76F
KIRKSVILLE     CLOUDY    55  53  93 S7        29.78F

$$
MOZ066>068-077>081-088>096-101>105-212000-
...SOUTHWEST MISSOURI...

CITY           SKY/WX    TMP DP  RH WIND       PRES   REMARKS
SPRINGFIELD    PTSUNNY   70  53  54 SW20G38   29.79F
JOPLIN         MOSUNNY   71  53  52 S30G43    29.76F
BRANSON        CLOUDY    68  54  60 S17G23    29.86F

$$
MOZ032>034-039>042-045>050-055>058-069>072-212000-
...CENTRAL MISSOURI...

CITY           SKY/WX    TMP DP  RH WIND       PRES   REMARKS
COLUMBIA       PTSUNNY   68  53  58 S17G26    29.78F
JEFFERSON CITY MOSUNNY   69  52  54 S23G32    29.78F
ROLLA          PTSUNNY   68  53  58 S22G32    29.83F
SEDALIA        PTSUNNY   68  55  63 S17G30    29.76F
WHITEMAN AFB   PTSUNNY   67  53  61 SW18G26   29.70F
WARRENSBURG    CLOUDY    64  52  63 S20G29    29.73F
OSAGE BEACH    CLOUDY    69  54  58 S18G26    29.80F

$$
MOZ051-052-059>065-212000-
...EAST CENTRAL MISSOURI...

CITY           SKY/WX    TMP DP  RH WIND       PRES   REMARKS
ST LOUIS INTL  CLOUDY    68  54  60 S17G28    29.85F
SPIRIT OF STL  CLOUDY    70  53  54 S17G28    29.82F
ST CHARLES     CLOUDY    69  53  56 S17G25    29.84F

$$
MOZ072>076-082>087-097>100-106>115-212000-
...SOUTH CENTRAL AND SOUTHEAST MISSOURI...

CITY           SKY/WX    TMP DP  RH WIND       PRES   REMARKS
CAPE GIRARDEAU CLOUDY    53  51  93 S17G24    29.99F
FARMINGTON     CLOUDY    59  55  87 S14       29.91F
POPLAR BLUFF   CLOUDY    57  54  89 S13       29.97F FOG
WEST PLAINS    CLOUDY    62  56  80 S10       29.90F

$$


USA.gov is the U.S. government's official web portal to all federal, state and local government web resources and services.